Regional Weather Roundup
Issued by NWS

Home | Current Version | Previous Version | Text Only | Print | Product List | Glossary Off
Versions: 1 2 3 4 5 6 7 8 9 10 11 12 13 14 15 16 17 18 19 20 21 22 23 24 25 26 27 28 29 30 31 32 33 34 35 36 37 38 39 40 41 42 43 44 45 46 47 48 49 50

000
ASUS43 KMPX 260201
RWRMN
WEATHER ROUNDUP FOR MINNESOTA
NATIONAL WEATHER SERVICE TWIN CITIES/CHANHASSEN MN
900 PM CDT TUE JUL 25 2017


NOTE: "FAIR" INDICATES FEW OR NO CLOUDS BELOW 12,000 FEET WITH NO
SIGNIFICANT WEATHER AND/OR OBSTRUCTIONS TO VISIBILITY. N/A MEANS
CURRENT SKY AND/OR WEATHER CONDITIONS ARE NOT AVAILABLE.

MNZ060>063-068>070-260300-
   Twin Cities Metro

CITY           SKY/WX    TMP DP  RH WIND       PRES   REMARKS
TWIN CITIES    LGT RAIN  79  71  76 S24G33    29.90F
ST PAUL        CLOUDY    76  75  97 S17       29.92S
CRYSTAL        CLOUDY    76  68  76 S13       29.92S
BLAINE         CLOUDY    81  72  74 S13G22    29.93S
LAKEVILLE      CLOUDY    73  73 100 S3        29.98F
SOUTH ST PAUL  LGT RAIN  76  74  94 S12       29.94F
LAKE ELMO      FAIR      77  72  83 S12G20    29.95F
$$
MNZ001>005-007-008-013>017-022>024-027-028-260300-
   Northwest Minnesota

CITY           SKY/WX    TMP DP  RH WIND       PRES   REMARKS
BEMIDJI        PTCLDY    72  68  86 SW7       29.93R
HALLOCK        CLEAR     70  61  73 NW7       29.89S
ROSEAU         CLEAR     72  63  73 W3        29.88S
WARROAD        CLEAR     70  61  73 W8        29.88R
CROOKSTON      CLOUDY    72  63  73 NW6       29.92R
FOSSTON        CLOUDY    72  66  83 W6        29.94R
DETROIT LAKES  CLOUDY    72  68  88 CALM      29.96S
MOORHEAD       CLOUDY    75  70  83 CALM      29.94R
PARK RAPIDS    CLOUDY    73  68  84 W5        29.94F
MAHNOMEN       FAIR      72  69  90 SW5       29.94R
$$
MNZ006-009>011-018-025>026-260300-
   North Central Minnesota

CITY           SKY/WX    TMP DP  RH WIND       PRES   REMARKS
BAUDETTE       CLEAR     72  58  61 W9        29.87R
FLAG ISLAND    CLEAR     72  57  60 W9        29.84S
INTL FALLS     PTCLDY    71  66  84 SW8       29.84R
WASKISH        MOCLDY    75  70  83 SW10      29.88R
BIG FORK       PTCLDY    70  66  88 SW7       29.91R
LONGVILLE      PTCLDY    72  68  88 CALM      29.94R
GRAND RAPIDS   CLOUDY    71  68  90 S6        29.96R
CRANE LAKE     CLOUDY    70  66  88 S5        29.89S
ORR            PTCLDY    70  63  78 S6        29.88S
COOK             N/A     70  66  88 SW6       29.92R
WALKER         FAIR      71  68  90 SW5       29.94R
$$
MNZ012-019>021-037-260300-
   Northeast Minnesota

CITY           SKY/WX    TMP DP  RH WIND       PRES   REMARKS
DULUTH         CLOUDY    69  66  90 SW7       29.95R
ELY            CLOUDY    66  64  94 SW6       29.92R
HIBBING        CLOUDY    68  68 100 CALM      29.94R
EVELETH        CLOUDY    68  64  88 S6        29.95S FOG
DULUTH HARBOR  CLOUDY    64  63  94 E3        29.94S
TWO HARBORS    CLOUDY    70  64  83 CALM      29.92S
SILVER BAY     CLOUDY    68  64  88 CALM      29.92R
GRAND MARAIS     N/A     62  59  90 CALM      29.92R
G MARAIS ARPRT DRIZZLE   63  59  88 S5        29.97R
$$
MNZ029>031-032-039>041-046>048-054>057-064-260300-
   West Central Minnesota

CITY           SKY/WX    TMP DP  RH WIND       PRES   REMARKS
FERGUS FALLS   MOCLDY    75  72  88 CALM      29.94R
WHEATON        CLOUDY    75  70  83 CALM      29.96F
MORRIS         CLOUDY    79  68  69 SW6       29.98R THUNDER
ALEXANDRIA     LGT RAIN  76  72  87 N3        29.96F
ELBOW LAKE     FAIR      74  72  93 CALM      29.96S
WADENA         CLOUDY    73  70  88 CALM      29.96R
GLENWOOD       CLOUDY    73  70  88 SW12      29.97R
APPLETON       DRIZZLE   75  66  73 SW8       29.92F
BENSON         CLOUDY    79  66  65 W7        29.96F
ORTONVILLE     CLOUDY    75  70  83 MISG      29.94F
MADISON        LGT RAIN  75  70  83 NW6       29.94F
WILLMAR        FAIR      77  70  78 NW8       29.97R
$$
MNZ033>034-036-042>043-049>051-058-059-260300-
   Central Minnesota

CITY           SKY/WX    TMP DP  RH WIND       PRES   REMARKS
ST CLOUD       PTCLDY    76  69  79 SW5       29.95R THUNDER
SAUK CENTRE    CLOUDY    74  73  94 S5        29.95R
PAYNESVILLE    CLOUDY    77  71  83 W7        29.97R
AITKIN         CLOUDY    72  70  94 CALM      29.93F
PINE RIVER     MOCLDY    72  70  94 CALM      29.98R
BRAINERD       MOCLDY    75  71  87 CALM      29.94S
STAPLES        MOCLDY    73  68  83 CALM      29.95R
LONG PRAIRIE   MOCLDY    75  72  88 CALM      29.95S
LITTLE FALLS   CLOUDY    77  70  78 CALM      29.94S
LITCHFIELD     CLOUDY    79  70  73 CALM      29.94S
BUFFALO        CLOUDY    76  67  72 S6        29.93F
MAPLE LAKE     CLOUDY    76  68  76 SW3       29.94S
HUTCHINSON     LGT RAIN  75  67  76 SW3       29.96R
$$
MNZ037-044-045-052-053-260300-
   East Central Minnesota

CITY           SKY/WX    TMP DP  RH WIND       PRES   REMARKS
PRINCETON      PTCLDY    79  70  73 SW5       29.95R
MORA           CLOUDY    73  68  83 CALM      29.96R
CAMBRIDGE      CLOUDY    81  68  65 SW6       29.93R
RUSH CITY      CLOUDY    76  70  82 CALM      29.94R
MOOSE LAKE     CLOUDY    73  68  83 CALM      29.92S
HINCKLEY       CLOUDY    75  72  88 S3        29.94R
CLOQUET        CLOUDY    70  64  83 CALM      29.95S
MCGREGOR       CLOUDY    73  68  83 CALM      29.95S
$$
MNZ071>073-080-081-089-090-097-098-260300-
   Southwest Minnesota

CITY           SKY/WX    TMP DP  RH WIND       PRES   REMARKS
MONTEVIDEO     CLOUDY    75  66  73 W8        29.94F
GRANITE FALLS  DRIZZLE   75  68  78 S14G22    29.98R
CANBY          CLOUDY    76  68  77 S13G18    29.97R
MARSHALL       RAIN      72  67  84 W12       30.00R
REDWOOD FALLS  LGT RAIN  76  73  91 NW5       29.97R
OLIVIA         LGT RAIN  73  72  94 SW8       29.96R
PIPESTONE      RAIN      73  70  88 E12G17    29.99F
WINDOM         LGT RAIN  79  73  83 CALM      30.00R
WORTHINGTON    LGT RAIN  77  74  90 NE6       30.00R
JACKSON        LGT RAIN  81  72  74 CALM      30.00R
TRACY          RAIN      73  70  89 W5        30.01R
SLAYTON        RAIN      71  67  87 NW14      30.03R
$$
MNZ065>067-074>077-082>085-091>093-260300-
   South Central Minnesota

CITY           SKY/WX    TMP DP  RH WIND       PRES   REMARKS
MANKATO        CLOUDY    79  75  87 S6        29.95F
NEW ULM        CLOUDY    82  72  69 NW6       29.95R
ST JAMES         N/A     79  73  83 S5        29.97F
FAIRMONT       CLOUDY    79  74  84 SE8       29.98S
GLENCOE        CLOUDY    73  72  96 S3        29.93F
FARIBAULT      LGT RAIN  77  73  88 E6        29.99F
OWATONNA       CLOUDY    77  72  83 S10       29.98F
WASECA         CLOUDY    77  72  83 S10       29.98F
ALBERT LEA     CLOUDY    77  72  83 S6        30.01S
$$
MNZ078>079-086>088-094>096-260300-
   Southeast Minnesota

CITY           SKY/WX    TMP DP  RH WIND       PRES   REMARKS
ROCHESTER      LGT RAIN  74  70  87 S7        30.04R
RED WING       LGT RAIN  75  72  88 CALM      29.98F
STANTON        LGT RAIN  76  72  87 CALM      29.99R
DODGE CENTER   LGT RAIN  73  70  88 S10       30.02F
WINONA         CLOUDY    73  68  83 CALM      30.03R
AUSTIN         CLOUDY    75  70  83 S6        30.03R
PRESTON        CLOUDY    73  67  80 S9        30.05R
$$
ABBREVIATIONS USED IN REMARKS
   TC - TEMPERATURES IN CELSIUS
  WCI - WIND CHILL INDEX
   HX - HEAT INDEX
  VSB - VISIBILITY
$$




USA.gov is the U.S. government's official web portal to all federal, state and local government web resources and services.